Location: Apeadero de Los Molinos-Guadarrama
(40.7091°N, 4.0689°W)
Time: 13:10:08
(UTC+00:00)

SPOT 1/Viking Rocket - Pass Details

Date: 14 May 2021
Orbit: 776 x 794 km, 98.4° (Epoch: 18 June)

Event Time Altitude Azimuth Distance (km) Brightness Sun altitude
Exits shadow 21:30:21 32° 173° (S) 1,339 4.3 -19.5°
Maximum altitude 21:32:52 80° 257° (WSW) 805 3.6 -19.8°
Drops below altitude 10° 21:38:05 10° 345° (NNW) 2,355 7.0 -20.5°
Sets 21:40:24 0° 346° (NNW) 3,285 7.9 -20.7°
